Location: Bear Valley Meadows
(40.9851°N, 123.0761°W)
Time: 10:45:11
(UTC+00:00)

Hubble Space Telescope - Pass Details

Date: 25 May 2025
Orbit: 488 x 491 km, 28.5° (Epoch: 19 June)

Event Time Altitude Azimuth Distance (km) Brightness Sun altitude
Exits shadow 11:43:00 12° 198° (SSW) 1,568 2.6 -10.6°
Maximum altitude 11:43:53 12° 184° (S) 1,525 2.7 -10.5°
Drops below altitude 10° 11:45:30 10° 159° (SSE) 1,664 3.1 -10.3°
Sets 11:48:50 0° 128° (SE) 2,543 4.4 -9.8°
